"Pseudo-MPEC" for ZTF0Dip = ZTF0DkY = ZTF0DcD

Created 2020 Jul 26 14:14:40 UT using Find_Orb

Click here for an explanation of pseudo-MPECs

The linkage between ZTF0DkY = ZTF0Dip, from consecutive nights, is quite solid. I am almost certain of the linkage to ZTF0DcD four weeks earlier, enough so that but won't mind if more data comes through to confirm it. I'm confident enough to post a pseudo-MPEC for it, though, and to post TLEs for the combined orbit.

Since this is an ETBO, the predictions of its orbit should be considered approximate; solar radiation pressure will make it move in odd and unpredictable ways.

 
 Astrometry: 
     ZTF0DcD* C2020 06 30.45936321 25 44.28 -16 25 30.2    ~6UJ4 16.87RUNEOCPI41
     ZTF0DcD  C2020 06 30.45971021 25 48.68 -16 24 44.7    ~6UJ4 16.87RUNEOCPI41
     ZTF0DcD  C2020 06 30.48018921 30 23.37 -15 37 38.3    ~6UJ4       UNEOCPI41
     ZTF0DcD  C2020 06 30.48053621 30 27.91 -15 36 51.9    ~6UJ4       UNEOCPI41
     ZTF0Dip* C2020 07 25.35517421 35 58.17 -14 42 24.2    ~7PNq 16.27RUNEOCPI41
     ZTF0Dip  C2020 07 25.35552121 36 01.49 -14 41 45.3    ~7PNq 16.27RUNEOCPI41
     ZTF0Dip  C2020 07 25.37687521 39 29.23 -14 00 34.5    ~7PNq 16.76gUNEOCPI41
     ZTF0Dip  C2020 07 25.37722221 39 32.58 -13 59 53.9    ~7PNq 16.76gUNEOCPI41
     ZTF0DkY* C2020 07 26.37621521 19 52.26 -16 19 04.4    ~7QCx 16.18RUNEOCPI41
     ZTF0DkY  C2020 07 26.37656321 19 55.54 -16 18 23.6    ~7QCx 16.18RUNEOCPI41
     ZTF0DkY  C2020 07 26.39798621 23 21.46 -15 36 02.7    ~7QCx 16.68gUNEOCPI41
     ZTF0DkY  C2020 07 26.39833321 23 24.87 -15 35 20.4    ~7QCx 16.68gUNEOCPI41
     ZTF0DkY  C2020 07 26.47141221 35 33.99 -13 04 18.9    ~7QCx 16.19RUNEOCPI41
     ZTF0DkY  C2020 07 26.47175921 35 37.66 -13 03 33.8    ~7QCx 16.19RUNEOCPI41

Station data:
(I41) Palomar Mountain--ZTF  (N33.357340 W116.859780)  US/California. 1.2-m
   f/2.44 Oschin Schmidt + CCD.

Orbital elements:  ZTF0Dip = ZTF0DkY = ZTF0DcD 
   Perigee 2020 Jul 24.7702403 +/- 0.000176 TT = 18:29:08.75 (JD 2459055.2702403)
A1: 9.21e-6 +/- 2.3e-8   A2: -1.81e-9 +/- 1.34e-8   A3: 1.8e-7 +/- 1.11e-8 AU/day^2 [1/r^2]
Epoch 2020 Jul 25.0 TT = JDT 2459055.5                        Find_Orb
M  76.8536915821 +/- 0.059          (J2000 equator)
n 334.4958899280 +/- 0.00115        Peri.  153.2516325 +/- 0.015
a 44361.849996 +/- 0.101            Node   344.0881978 +/- 0.006
e   0.769399269 +/- 6.87e-5         Incl.   29.3026760 +/- 0.0032
P1549.77m/1.076d           H 32.2   G  0.15   U  8.2
q 10229.875036 +/- 3.03    Q 78493.824956 +/- 3.14
From 14 observations 2020 June 30-July 26; mean residual 2".132
Residuals in arcseconds: 
200630 I41 1.67+ 1.25+    200725 I41 3.61- 3.36-    200726 I41 .265+ .499+
200630 I41 .907- .053+    200725 I41 1.93- 2.99-    200726 I41 1.25+ 1.23+
200630 I41 1.44+ 1.23+    200725 I41 2.36- 3.19-    200726 I41 2.28+ 3.31+
200630 I41 1.34- 1.45-    200726 I41 1.56+ 1.30+    200726 I41 2.46+ 3.87+
200725 I41 2.80- 2.76-    200726 I41 .603+ 1.21+

